Regional Weather Roundup
Issued by NWS

Home | Current Version | Previous Version | Text Only | Print | Product List | Glossary Off
Versions: 1 2 3 4 5 6 7 8 9 10 11 12 13 14 15 16 17 18 19 20 21 22 23 24 25 26 27 28 29 30 31 32 33 34 35 36 37 38 39 40 41 42 43 44 45 46 47 48 49 50

000
ASUS43 KLMK 222002
RWRKY
KENTUCKY REGIONAL WEATHER ROUNDUP
NATIONAL WEATHER SERVICE LOUISVILLE KY
400 PM EDT SUN OCT 22 2017

NOTE "FAIR" INDICATES FEW OR NO CLOUDS BELOW 12,000 FEET
WITH NO SIGNIFICANT WEATHER AND/OR OBSTRUCTIONS TO VISIBILITY.

KYZ001>023-026-027-061>063-070>075-222100-
WESTERN AND SOUTH CENTRAL KENTUCKY

CITY           SKY/WX    TMP DP  RH WIND       PRES   REMARKS
PADUCAH        CLOUDY    77  60  55 S14       29.95F
HENDERSON      PTSUNNY   77  60  55 S17G28    30.00S
OWENSBORO      CLOUDY    77  61  57 S16       30.02S
HOPKINSVILLE   NOT AVBL
BOWLING GREEN  LGT RAIN  79  60  52 S14G23    30.06F
GLASGOW        NOT AVBL
$$

KYZ024-025-028>034-038-045-046-053-222100-
NORTH CENTRAL KENTUCKY

CITY           SKY/WX    TMP DP  RH WIND       PRES   REMARKS
LOUISVILLE/SDF PTSUNNY   78  57  48 S15G24    30.08F
LOUISVILLE/LOU MOSUNNY   76  59  55 S16G23    30.09F
FORT KNOX      NOT AVBL
$$

KYZ035>037-039>044-047>052-055>060-089>105-222100-
NORTHEAST KENTUCKY

CITY           SKY/WX    TMP DP  RH WIND       PRES   REMARKS
LEXINGTON      MOSUNNY   75  53  46 S10       30.14F
COVINGTON      PTSUNNY   75  55  49 S14       30.12R
FRANKFORT      MOSUNNY   75  53  46 S6        30.12F
$$

KYZ054-064>069-076>088-106>120-222100-
SOUTHEAST KENTUCKY

CITY           SKY/WX    TMP DP  RH WIND       PRES   REMARKS
JACKSON        MOSUNNY   74  50  42 VRB3      30.19S
LONDON         CLOUDY    75  51  43 S13G23    30.17S
SOMERSET       NOT AVBL
MIDDLESBORO    CLOUDY    78  51  39 S3        30.18F
MONTICELLO     CLOUDY    76  59  55 E9        30.15F
$$





USA.gov is the U.S. government's official web portal to all federal, state and local government web resources and services.